Regional Weather Roundup
Issued by NWS

Home | Current Version | Previous Version | Text Only | Print | Product List | Glossary Off
Versions: 1 2 3 4 5 6 7 8 9 10 11 12 13 14 15 16 17 18 19 20 21 22 23 24 25 26 27 28 29 30 31 32 33 34 35 36 37 38 39 40 41 42 43 44 45 46 47 48 49 50

000
ASUS44 KMEG 311010
RWRTN
TENNESSEE HOURLY STATE WEATHER ROUNDUP
NATIONAL WEATHER SERVICE MEMPHIS TN
400 AM CST SAT JAN 31 2015

TNZ002-004-019-021-049-052-054-088>092-311100-
WEST TENNESSEE

CITY           SKY/WX    TMP DP  RH WIND       PRES   REMARKS
MEMPHIS INTL   CLOUDY    39  22  50 SE5       30.36F
NWS MEMPHIS      N/A     36 N/A N/A MISG        N/A
JACKSON        CLOUDY    32  23  69 CALM      30.37F
DYERSBURG      CLOUDY    30  16  55 CALM      30.40F
UNION CITY     CLEAR     25  21  86 CALM      30.37F
PARIS          CLEAR     25  19  80 E3        30.37S
LEXINGTON      CLEAR     25  21  86 CALM      30.36F
SAVANNAH       CLEAR     28  25  86 CALM      30.37F
$$

TNZ008-025-027-028-033-062-065-066-311100-
NORTH MIDDLE TENNESSEE

CITY           SKY/WX    TMP DP  RH WIND       PRES   REMARKS
NASHVILLE      PTCLDY    25  21  85 CALM      30.38F
CLARKSVILLE    CLEAR     25  21  85 CALM      30.39F
SMYRNA         CLEAR     20  18  92 CALM      30.40F
COOKEVILLE     CLEAR     16  14  93 CALM      30.35S
CROSSVILLE     CLEAR     22  17  81 NE3       30.32F
$$

TNZ061-075-076-078-094-096-097-311100-
SOUTH MIDDLE TENNESSEE

CITY           SKY/WX    TMP DP  RH WIND       PRES   REMARKS
FAYETTEVILLE   CLEAR     25  18  74 MISG      30.34S
TULLAHOMA      CLEAR     21  16  79 CALM      30.34F
WINCHESTER     CLEAR     18  16  93 CALM      30.34F
MCMINNVILLE    CLEAR     21  18  86 S12       30.35F SQUALL  WCI   9
COLUMBIA       CLEAR    N/A N/A N/A CALM      30.36R
SHELBYVILLE    CLEAR     19  19 100 CALM      30.37F
$$

TNZ017-018-042-046-047-311100-
NORTHEAST TENNESSEE

CITY           SKY/WX    TMP DP  RH WIND       PRES   REMARKS
TRI CITIES     CLEAR     18  14  84 CALM      30.36S
ELIZABETHTON   SUNNY     16  10  79 CALM      30.35S
$$

TNZ012-013-036-069-073-074-311100-
CENTRAL EAST TENNESSEE

CITY           SKY/WX    TMP DP  RH WIND       PRES   REMARKS
KNOXVILLE      CLEAR     25  17  72 N7        30.36F WCI  17
OAK RIDGE      CLEAR     24  18  77 CALM      30.39S
GATLINBURG     SUNNY     16  14  93 CALM      30.36F
MORRISTOWN     SUNNY     19  16  86 CALM      30.35F
$$

TNZ083-085-099-311100-
SOUTHEAST TENNESSEE

CITY           SKY/WX    TMP DP  RH WIND       PRES   REMARKS
CHATTANOOGA    CLEAR     28  21  75 CALM      30.37F
$$

SKY/WX REPORTED AS FAIR MEANS FEW OR NO CLOUDS BELOW
12 THOUSAND FEET.



USA.gov is the U.S. government's official web portal to all federal, state and local government web resources and services.